This is the latest recevied weather packets stored in our database for station/object K9NZF-1. If no packets are shown the sender has not sent any weather packets the latest 1 day(s).
| Time | Temp. | Humidity | Pressure | Rain* | Wind** | Luminosity | Snow |
|---|---|---|---|---|---|---|---|
| 1778023139 | 8.33° C | 93% | 1008 hPa | 2.29 mm | - | 18 W/m² | - |
| 1778022894 | 8.33° C | 93% | 1008 hPa | 2.29 mm | - | 12 W/m² | - |
| 1778022769 | 8.33° C | 93% | 1008 hPa | 2.03 mm | - | 12 W/m² | - |
| 1778022712 | 8.33° C | 93% | 1008 hPa | 2.03 mm | - | 9 W/m² | - |
| 1778022531 | 8.33° C | 93% | 1008 hPa | 2.03 mm | - | 14 W/m² | - |
| 1778022410 | 8.33° C | 93% | 1007.9 hPa | 2.29 mm | - | 19 W/m² | - |
| 1778022167 | 8.89° C | 93% | 1008 hPa | 2.03 mm | - | 23 W/m² | - |
| 1778021626 | 8.89° C | 92% | 1008.1 hPa | 1.78 mm | - | 12 W/m² | - |
| 1778021266 | 8.89° C | 93% | 1008.1 hPa | 1.52 mm | - | 16 W/m² | - |
| 1778020966 | 8.89° C | 93% | 1008.1 hPa | 1.52 mm | - | 14 W/m² | - |
| 1778020845 | 8.89° C | 93% | 1008.1 hPa | 1.27 mm | - | 16 W/m² | - |
| 1778020786 | 8.89° C | 93% | 1008 hPa | 1.27 mm | - | 21 W/m² | - |
| 1778020725 | 8.89° C | 93% | 1008 hPa | 1.27 mm | - | 21 W/m² | - |
| 1778020426 | 8.89° C | 92% | 1008 hPa | 1.27 mm | - | 25 W/m² | - |
| 1778020307 | 8.89° C | 92% | 1008 hPa | 1.27 mm | - | 21 W/m² | - |
| 1778020246 | 8.89° C | 92% | 1008 hPa | 1.27 mm | - | 19 W/m² | - |
| 1778020190 | 8.89° C | 92% | 1008 hPa | 1.27 mm | - | 21 W/m² | - |
| 1778020125 | 8.89° C | 92% | 1008 hPa | 1.27 mm | - | 23 W/m² | - |
| 1778019827 | 8.89° C | 92% | 1007.9 hPa | 1.02 mm | - | 28 W/m² | - |
| 1778019647 | 8.89° C | 92% | 1007.9 hPa | 1.27 mm | - | 26 W/m² | - |
| 1778019466 | 9.44° C | 92% | 1007.9 hPa | 1.02 mm | - | 25 W/m² | - |
| 1778019405 | 9.44° C | 92% | 1008 hPa | 1.02 mm | - | 25 W/m² | - |
| 1778018805 | 9.44° C | 92% | 1008 hPa | 1.02 mm | - | 26 W/m² | - |
| 1778018267 | 9.44° C | 92% | 1007.8 hPa | 1.52 mm | - | 35 W/m² | - |
| 1778018145 | 9.44° C | 92% | 1007.8 hPa | 1.52 mm | - | 33 W/m² | - |
* Rain latest hour (hover to see other rain measurements)
** Current wind speed in m/s (hover to see current wind gust speed)